カタログに戻る

TIANMU-1 07

運用中科学SSO
NORAD 57399·PAYLOAD·🇨🇳 China

打ち上げ Jul 20, 2023 から Jiuquan Satellite Launch Center

Loading…

次のパス (今後24時間)

TLE

最新Source: Space-Track

元期: Sep 14, 2026, 14:51 UTC

1 57399U 23101A   26257.61926958  .00004729  00000-0  16189-3 0  9998
2 57399  97.2506 306.2482 0003208 144.6000 215.5455 15.30696415175322

AllMySatでTIANMU-1 07をリアルタイム追跡

Download on the App Store